Location: Ch�tonnaye
(46.7545°N, 6.9380°E)
Time: 16:33:26
(UTC+00:00)

Daily predictions for brighter satellites

Satellite Brightness Start Highest point End
(mag) Time Altitude Azimuth Time Altitude Azimuth Time Altitude Azimuth
NOSS 3-1 (A) 4.3 16:09:36 10° NNW 16:16:29 45° NE 16:24:33 10° ESE
NOSS 3-1 (C) 4.1 16:12:01 10° NW 16:19:16 64° NE 16:27:49 10° SE
USA 234 3.3 16:13:34 10° ESE 16:20:07 88° NE 16:26:41 10° NW
CZ-4B R/B 2.8 16:19:32 10° SSE 16:23:41 71° ENE 16:27:38 10° N
NOSS 2-1 (D) 3.3 16:20:47 10° SW 16:23:59 55° NW 16:27:16 10° NNE
Cosmos 44 3.4 16:19:50 10° NNW 16:24:34 49° NE 16:29:00 10° ESE
ERBS 2.1 16:21:44 10° SW 16:24:55 90° SE 16:28:09 10° NE
Okean O Rocket 3.2 16:23:23 10° E 16:25:56 15° ENE 16:28:30 10° NNE
CZ-4C R/B 3.9 16:22:36 10° N 16:26:33 59° WNW 16:30:14 10° SSW
Cosmos 2084 4.4 16:22:57 10° NNW 16:26:40 28° NE 16:30:30 10° E
USA 305 3.4 16:24:54 10° W 16:29:02 52° NNW 16:33:11 10° NE
Cosmos 1340 Rocket 3.5 16:26:10 10° N 16:29:54 34° ENE 16:33:37 10° SE
CZ-4C R/B 3.8 16:25:32 10° NNW 16:31:04 27° NNE 16:37:27 10° E
Cosmos 1408 Rocket 3.5 16:31:33 10° N 16:35:52 62° ENE 16:40:11 10° SSE
Lacrosse 5 rocket 3.0 16:33:34 10° NW 16:36:16 18° N 16:39:03 10° NE
Cosmos 1464 Rocket 4.0 16:31:03 10° S 16:37:23 74° E 16:43:46 10° NNE
Cosmos 1743 Rocket 4.0 16:36:58 10° N 16:41:02 38° ENE 16:45:04 10° SE
CORIOLIS 4.2 16:36:01 10° SSE 16:41:18 61° ENE 16:46:39 10° N
Cosmos 1898 Rocket 4.0 16:38:13 10° N 16:43:06 36° ENE 16:47:54 10° SE
Cosmos 1933 4.4 16:41:56 10° SE 16:45:18 25° E 16:48:40 10° NNE
Iridium 2 4.5 16:44:02 10° NNW 16:47:44 55° W 16:51:23 10° SSW
H-2A R/B 2.4 16:43:35 10° SE 16:48:27 42° ENE 16:53:14 10° N
CZ-2D R/B 3.7 16:46:30 10° SE 16:50:06 39° ENE 16:53:42 10° N
Nadezhda 4 Rocket 4.0 16:45:02 10° N 16:51:22 76° E 16:57:42 10° SSE
Cosmos 1833 Rocket 3.4 16:46:34 10° SSE 16:51:31 33° ESE 16:56:02 12° NE
Meteor 1-20 Rocket 4.4 16:48:16 10° N 16:53:59 55° ENE 16:59:42 10° SSE
ISS -2.8 16:54:41 10° WNW 16:57:50 34° N 16:59:39 20° NE
ARGOS 3.7 16:54:24 10° SE 16:59:13 34° ENE 17:04:02 10° N
CZ-4B R/B 3.5 16:55:01 10° SE 17:00:06 43° ENE 17:05:09 10° N
USA 306 3.7 16:57:03 10° W 17:01:05 40° NNW 17:03:56 17° NE
SKYMED 2 4.5 16:58:54 13° NE 17:02:03 28° E 17:05:47 10° SSE
Cosmos 1092 Rocket 4.1 16:56:31 10° N 17:02:47 56° ENE 17:08:59 10° SSE
Cosmos 1606 3.6 16:59:53 10° SSW 17:03:31 50° WNW 17:07:13 10° N
SJ 16-02 3.1 17:00:55 10° NW 17:04:55 35° WSW 17:08:53 10° SSW
PSLV R/B 3.5 17:01:40 10° SSE 17:05:19 69° ENE 17:09:01 10° N
ATLAS CENTAUR R/B 3.3 16:55:44 10° SSW 17:06:19 58° SE 17:09:32 20° ENE
AQUARIUS 4.3 17:04:13 10° S 17:08:42 80° WSW 17:13:14 10° NNW
Cosmos 1500 Rocket 3.5 17:06:40 10° N 17:11:10 84° E 17:15:34 10° S
Cosmos 1428 Rocket 4.5 17:07:21 10° N 17:13:24 58° ENE 17:19:26 10° SSE
Cosmos 1939 Rocket 3.9 17:10:40 10° S 17:14:40 51° W 17:18:42 10° NNW
USA 307 3.9 17:14:03 10° W 17:18:04 37° NNW 17:20:14 22° NE
MOS 1-B Rocket 4.0 17:12:26 10° NNE 17:18:08 58° ESE 17:24:29 10° S
CZ-2C R/B 2.8 17:14:47 10° NNE 17:19:48 45° E 17:24:44 10° S
USA 276 1.9 17:17:37 10° WNW 17:20:45 88° NNE 17:21:52 37° ESE
Cosmos 1627 Rocket 4.4 17:15:06 10° N 17:21:16 65° ENE 17:27:21 10° SSE
Cosmos 2034 Rocket 4.2 17:15:26 10° SSW 17:21:35 75° W 17:27:46 10° N
Cosmos 1805 Rocket 3.4 17:17:52 10° N 17:22:12 65° ENE 17:26:29 10° SSE
Cosmos 1500 3.5 17:19:19 10° N 17:22:53 40° ENE 17:26:24 10° SSE
Cosmos 1763 Rocket 3.3 17:22:36 10° SSW 17:27:40 81° ESE 17:31:56 15° NNE
ATLAS CENTAUR R/B 3.6 17:24:51 10° WNW 17:27:57 19° NNW 17:31:11 10° NNE
COSMOS 2455 3.5 17:23:02 10° S 17:28:25 35° ESE 17:30:31 27° ENE
USA 267 3.8 17:24:23 18° NE 17:29:04 50° NNW 17:35:20 10° W
Cosmos 1937 Rocket 3.5 17:24:14 10° NNW 17:29:32 63° ENE 17:34:48 10° SSE
Cosmos 841 Rocket 3.9 17:25:34 10° S 17:30:20 39° ESE 17:32:02 30° ENE
Sich 1 2.9 17:26:28 10° N 17:30:43 62° ENE 17:34:58 10° SSE
Cosmos 2279 Rocket 4.2 17:28:51 10° SSE 17:34:40 44° E 17:40:30 10° NNE
CZ-4 R/B 4.4 17:31:29 10° SSE 17:35:31 58° ENE 17:39:36 10° N
Meteor 1-25 Rocket 4.3 17:30:19 10° NNW 17:35:54 78° W 17:41:28 10° S
Landsat 5 3.7 17:35:36 39° ENE 17:36:23 44° E 17:40:17 10° S
GEOS 3 Rocket 3.6 17:33:05 18° ESE 17:36:59 63° NE 17:42:07 10° NW
Cosmos 2221 4.4 17:35:27 10° SW 17:39:11 29° WNW 17:42:58 10° N
YAOGAN 3 4.4 17:35:19 10° SSE 17:39:39 69° ENE 17:44:00 10° N
USA 308 4.0 17:36:37 10° WNW 17:40:29 33° N 17:41:37 28° NNE
Meteor 1-5 Rocket 4.5 17:38:04 10° N 17:43:53 50° ENE 17:49:38 10° SSE
Cosmos 2322 Rocket 3.9 17:40:50 10° N 17:43:06 16° NNE 17:43:06 16° NNE
USA 229 DEB 4.0 17:37:06 10° NW 17:44:28 84° SW 17:52:17 10° SSE
USA 229 4.0 17:37:12 10° NW 17:44:33 85° SW 17:52:23 10° SE
ATLAS 5 CENTAUR R/B 2.9 17:38:36 10° NW 17:45:50 34° NNE 17:46:14 34° NNE
Cosmos 1634 Rocket 3.9 17:39:47 10° S 17:46:06 82° E 17:52:28 10° N
Cosmos 2369 3.6 17:40:32 10° NNW 17:46:16 68° ENE 17:51:47 11° SE
deb Chang Zheng 4 3.6 17:44:39 10° S 17:48:57 78° WSW 17:53:18 10° NNW
Meteor 2-16 Rocket 4.4 17:43:41 10° N 17:49:45 61° ENE 17:55:47 10° SSE
COSMO-SKYMED 1 2.4 17:47:31 22° NNE 17:50:18 87° ESE 17:54:39 10° SSW
Cosmos 1697 Rocket 2.8 17:45:56 10° NNW 17:51:34 78° WSW 17:57:10 10° SSE
ATLAS 2AS CENTAUR R/B 4.5 17:46:45 10° WNW 17:52:35 23° N 17:56:25 16° NNE
Cosmos 372 Rocket 3.9 17:48:10 10° NNW 17:53:22 64° ENE 17:56:21 25° SE
Cosmos 1980 Rocket 2.1 17:48:26 10° NNW 17:54:05 62° ENE 17:56:40 32° SE
Cosmos 1655 Rocket 4.4 17:48:53 10° N 17:54:53 40° ENE 17:55:29 39° E
Cosmos 1782 2.8 17:51:25 10° S 17:55:25 81° W 17:57:00 35° N
CZ-4 R/B 3.8 18:00:14 12° N 18:00:14 12° N 18:00:34 10° N
Cosmos 2026 Rocket 4.2 17:52:24 10° NNW 17:58:33 71° W 18:04:35 10° S
Cosmos 1812 3.7 17:55:08 10° S 17:57:28 34° SSE 17:57:28 34° SSE
SL-16 R/B 3.6 17:55:03 10° N 17:57:57 21° NNE 17:57:57 21° NNE
ERBS 4.3 17:58:45 10° WNW 18:00:55 20° NNW 18:00:55 20° NNW
Okean O Rocket 1.8 17:57:19 10° S 18:01:44 71° WSW 18:06:13 10° NNW
Cosmos 2082 Rocket 2.2 17:58:46 10° S 18:04:20 59° ESE 18:05:10 53° ENE
YAOGAN 1 4.1 18:07:40 24° N 18:07:40 24° N 18:09:31 10° N
Cosmos 2084 4.3 18:02:09 10° NW 18:06:21 51° SW 18:09:02 21° SSE
SL-08 RB Rocket 3.6 18:02:06 10° SSE 18:06:46 88° E 18:11:26 10° NNW
USA 305 4.2 18:05:47 10° WNW 18:09:15 30° N 18:09:15 30° N
Cosmos 2278 3.6 18:06:15 10° NNW 18:11:56 62° ENE 18:12:17 61° ENE
COSMOS 2406 3.3 18:07:09 10° SSW 18:12:54 77° WNW 18:15:25 35° NNE
Cosmos 2180 Rocket 4.4 18:07:50 10° S 18:14:07 67° E 18:17:45 27° NNE
Lacrosse 5 rocket 3.2 18:13:01 10° NW 18:14:43 20° NNW 18:14:43 20° NNW
NOSS 2-2 (D) 4.2 18:12:09 10° NW 18:17:22 86° NE 18:19:47 42° SE
Meteor 2-6 Rocket 4.1 18:11:41 10° S 18:17:22 64° E 18:17:22 64° E
NOSS 2-2 (E) 4.5 18:13:14 10° NW 18:18:36 81° SW 18:23:03 25° SSE
Cosmos 1814 Rocket 4.2 18:14:18 10° S 18:18:31 53° SSE 18:18:31 53° SSE
CZ-4C R/B 2.9 18:13:47 10° NW 18:20:53 67° NE 18:23:06 49° ESE
H-2A R/B 4.0 18:23:31 10° SSW 18:28:00 28° W 18:32:24 10° NW
Cosmos 1666 Rocket 4.1 18:26:07 10° NNW 18:30:30 56° W 18:34:49 10° S
Cosmos 540 Rocket 4.2 18:28:28 10° SW 18:33:24 49° WNW 18:34:57 37° NNW
ISS -1.0 18:31:40 10° WNW 18:32:38 18° WNW 18:32:38 18° WNW
Cosmos 1833 Rocket 3.7 18:30:01 10° SW 18:35:20 43° NW 18:37:45 28° N
Cosmos 1151 Rocket 4.0 18:31:22 10° SSW 18:34:31 43° SW 18:34:31 43° SW
Meteor 2-15 4.4 18:30:47 10° S 18:36:08 68° SSE 18:36:08 68° SSE
ARGOS 4.5 18:34:23 10° SSW 18:39:25 38° W 18:44:28 10° NNW
CZ-2C R/B 4.4 18:55:39 11° N 18:59:52 27° WNW 19:04:10 10° WSW
USA 267 4.2 19:11:44 36° N 19:11:44 36° N 19:17:09 10° WNW
COSMOS 2455 3.6 19:08:23 10° WSW 19:13:42 47° WNW 19:13:42 47° WNW
Cosmos 2322 Rocket 4.4 19:23:49 10° NNW 19:24:56 16° NNW 19:24:56 16° NNW
Cosmos 1980 Rocket 4.2 19:33:18 10° NW 19:37:36 23° W 19:38:33 22° WSW
SL-16 R/B 4.5 19:38:38 10° NNW 19:39:50 17° NNW 19:39:50 17° NNW
Cosmos 2082 Rocket 4.2 19:43:59 10° WSW 19:47:04 24° WNW 19:47:04 24° WNW
CZ-4C R/B 4.2 20:02:38 10° NW 20:08:21 36° W 20:08:21 36° W
